• In Czech Republic
  • List of Countries
  • For 7 days
  • Water Temperature
  • Satellite Maps
  • Weather Map
  • Weather Widgets
  • user-avatar
    Login

    Hourly Weather Astana

    Today, 19 September, Wednesday

    Time Temperature Precipitation Wind Pressure Humidity
    00:00 +9°C° 0 mm 5 mps 734 mmHg 52%
    01:00 +9°C° 0 mm 5 mps 734 mmHg 53%
    02:00 +9°C° 0 mm 5 mps 733 mmHg 53%
    03:00 +9°C° 0 mm 5 mps 733 mmHg 52%
    04:00 +9°C° 0 mm 5 mps 733 mmHg 51%
    05:00 +9°C° 0 mm 5 mps 732 mmHg 49%
    06:00 +9°C° 0 mm 5 mps 732 mmHg 47%
    07:00 +10°C° 0 mm 5 mps 732 mmHg 45%
    08:00 +11°C° 0 mm 6 mps 732 mmHg 43%
    09:00 +14°C° 0 mm 6 mps 731 mmHg 39%
    10:00 +15°C° 0 mm 6 mps 731 mmHg 35%
    11:00 +17°C° 0 mm 6 mps 731 mmHg 31%
    12:00 +19°C° 0 mm 6 mps 730 mmHg 28%
    13:00 +19°C° 0 mm 6 mps 730 mmHg 26%
    14:00 +20°C° 0 mm 6 mps 729 mmHg 24%
    15:00 +20°C° 0 mm 5 mps 729 mmHg 24%
    16:00 +20°C° 0 mm 4 mps 728 mmHg 25%
    17:00 +20°C° 0 mm 4 mps 728 mmHg 25%
    18:00 +19°C° 0 mm 3 mps 727 mmHg 26%
    19:00 +18°C° 0 mm 3 mps 727 mmHg 27%
    20:00 +16°C° 0 mm 3 mps 727 mmHg 28%
    21:00 +16°C° 0 mm 3 mps 726 mmHg 28%
    22:00 +14°C° 0 mm 4 mps 726 mmHg 29%
    23:00 +13°C° 0 mm 4 mps 725 mmHg 30%

    Tomorrow, 20 September, Thursday

    Time Temperature Precipitation Wind Pressure Humidity
    00:00 +13°C° 0 mm 4 mps 725 mmHg 30%
    01:00 +13°C° 0 mm 4 mps 725 mmHg 30%
    02:00 +13°C° 0 mm 4 mps 724 mmHg 31%
    03:00 +13°C° 0 mm 4 mps 724 mmHg 32%
    04:00 +13°C° 0 mm 4 mps 724 mmHg 33%
    05:00 +12°C° 0 mm 5 mps 724 mmHg 34%
    06:00 +13°C° 0 mm 5 mps 723 mmHg 33%
    07:00 +14°C° 0 mm 5 mps 723 mmHg 32%
    08:00 +15°C° 0 mm 6 mps 723 mmHg 31%
    09:00 +17°C° 0 mm 6 mps 723 mmHg 30%
    10:00 +19°C° 0 mm 6 mps 723 mmHg 29%
    11:00 +21°C° 0 mm 6 mps 723 mmHg 28%
    12:00 +22°C° 0 mm 7 mps 723 mmHg 29%
    13:00 +22°C° 0 mm 7 mps 722 mmHg 30%
    14:00 +23°C° 0 mm 7 mps 722 mmHg 30%
    15:00 +22°C° 0 mm 6 mps 722 mmHg 34%
    16:00 +22°C° 0 mm 6 mps 722 mmHg 37%
    17:00 +21°C° 0 mm 5 mps 722 mmHg 40%
    18:00 +19°C° 0 mm 5 mps 722 mmHg 46%
    19:00 +18°C° 0 mm 4 mps 722 mmHg 53%
    20:00 +17°C° 0 mm 4 mps 722 mmHg 59%
    21:00 +15°C° 0.1 mm 4 mps 722 mmHg 64%
    22:00 +15°C° 0.1 mm 5 mps 722 mmHg 68%
    23:00 +14°C° 0.1 mm 5 mps 722 mmHg 73%

    Day after tomorrow, 21 September, Friday

    Time Temperature Precipitation Wind Pressure Humidity
    00:00 +14°C° 0.1 mm 6 mps 722 mmHg 71%
    01:00 +13°C° 0.1 mm 6 mps 722 mmHg 69%
    02:00 +12°C° 0.1 mm 7 mps 722 mmHg 67%
    03:00 +11°C° 0 mm 7 mps 722 mmHg 65%
    04:00 +10°C° 0 mm 7 mps 722 mmHg 63%
    05:00 +9°C° 0 mm 7 mps 722 mmHg 61%
    06:00 +10°C° 0.1 mm 8 mps 722 mmHg 60%
    07:00 +10°C° 0.1 mm 9 mps 722 mmHg 59%
    08:00 +9°C° 0.1 mm 10 mps 722 mmHg 58%
    09:00 +9°C° 0.5 mm 10 mps 722 mmHg 63%
    10:00 +9°C° 0.5 mm 11 mps 722 mmHg 67%
    11:00 +9°C° 0.5 mm 11 mps 722 mmHg 72%
    12:00 +11°C° 0.1 mm 11 mps 723 mmHg 65%
    13:00 +12°C° 0.1 mm 11 mps 723 mmHg 58%
    14:00 +13°C° 0.1 mm 11 mps 724 mmHg 51%
    15:00 +13°C° 0 mm 10 mps 724 mmHg 51%
    16:00 +13°C° 0 mm 10 mps 725 mmHg 52%
    17:00 +13°C° 0 mm 9 mps 725 mmHg 52%
    18:00 +12°C° 0 mm 8 mps 726 mmHg 55%
    19:00 +12°C° 0 mm 7 mps 726 mmHg 59%
    20:00 +11°C° 0 mm 6 mps 727 mmHg 63%
    21:00 +10°C° 0 mm 6 mps 727 mmHg 64%
    22:00 +10°C° 0 mm 7 mps 727 mmHg 66%
    23:00 +9°C° 0 mm 7 mps 727 mmHg 68%

    22 September, Saturday

    Time Temperature Precipitation Wind Pressure Humidity
    00:00 +9°C° 0 mm 6 mps 727 mmHg 70%
    01:00 +9°C° 0 mm 6 mps 727 mmHg 72%
    02:00 +8°C° 0 mm 6 mps 727 mmHg 73%
    03:00 +8°C° 0 mm 6 mps 727 mmHg 75%
    04:00 +8°C° 0 mm 6 mps 728 mmHg 76%
    05:00 +8°C° 0 mm 6 mps 728 mmHg 78%
    06:00 +8°C° 0 mm 6 mps 728 mmHg 75%
    07:00 +9°C° 0 mm 7 mps 728 mmHg 72%
    08:00 +10°C° 0 mm 7 mps 729 mmHg 69%
    09:00 +11°C° 0 mm 8 mps 729 mmHg 64%
    10:00 +12°C° 0 mm 8 mps 729 mmHg 59%
    11:00 +15°C° 0 mm 8 mps 729 mmHg 54%
    12:00 +15°C° 0.1 mm 8 mps 729 mmHg 54%
    13:00 +15°C° 0.1 mm 8 mps 729 mmHg 54%
    14:00 +15°C° 0.1 mm 8 mps 729 mmHg 54%
    15:00 +15°C° 0.1 mm 7 mps 729 mmHg 56%
    16:00 +14°C° 0.1 mm 6 mps 729 mmHg 59%
    17:00 +14°C° 0.1 mm 6 mps 729 mmHg 61%
    18:00 +13°C° 0.1 mm 5 mps 729 mmHg 65%
    19:00 +13°C° 0.1 mm 4 mps 729 mmHg 69%
    20:00 +12°C° 0.1 mm 4 mps 730 mmHg 73%
    21:00 +12°C° 0.1 mm 4 mps 730 mmHg 76%
    22:00 +11°C° 0.1 mm 4 mps 730 mmHg 79%
    23:00 +11°C° 0.1 mm 4 mps 730 mmHg 83%

    23 September, Sunday

    Time Temperature Precipitation Wind Pressure Humidity
    00:00 +11°C° 0 mm 3 mps 730 mmHg 83%
    01:00 +11°C° 0 mm 3 mps 730 mmHg 84%
    02:00 +10°C° 0 mm 3 mps 730 mmHg 85%
    03:00 +10°C° 0.2 mm 4 mps 730 mmHg 85%
    04:00 +10°C° 0.2 mm 4 mps 729 mmHg 85%
    05:00 +10°C° 0.2 mm 4 mps 729 mmHg 86%
    06:00 +10°C° 0.5 mm 4 mps 729 mmHg 86%
    07:00 +9°C° 0.5 mm 5 mps 729 mmHg 86%
    08:00 +9°C° 0.5 mm 5 mps 729 mmHg 86%
    09:00 +9°C° 0.6 mm 5 mps 729 mmHg 84%
    10:00 +10°C° 0.6 mm 5 mps 729 mmHg 82%
    11:00 +10°C° 0.6 mm 5 mps 729 mmHg 80%
    12:00 +12°C° 0.2 mm 5 mps 728 mmHg 78%
    13:00 +12°C° 0.2 mm 5 mps 728 mmHg 76%
    14:00 +12°C° 0.2 mm 5 mps 728 mmHg 74%
    15:00 +13°C° 0.1 mm 5 mps 728 mmHg 71%
    16:00 +13°C° 0.1 mm 4 mps 728 mmHg 69%
    17:00 +13°C° 0.1 mm 4 mps 728 mmHg 66%
    18:00 +12°C° 0.1 mm 4 mps 728 mmHg 69%
    19:00 +11°C° 0.1 mm 3 mps 728 mmHg 72%
    20:00 +11°C° 0.1 mm 3 mps 729 mmHg 75%
    21:00 +10°C° 0.1 mm 3 mps 729 mmHg 77%
    22:00 +10°C° 0.1 mm 3 mps 729 mmHg 79%
    23:00 +10°C° 0.1 mm 3 mps 729 mmHg 81%

    24 September, Monday

    Time Temperature Precipitation Wind Pressure Humidity
    00:00 +9°C° 0 mm 3 mps 729 mmHg 82%
    01:00 +9°C° 0 mm 3 mps 729 mmHg 84%
    02:00 +9°C° 0 mm 3 mps 729 mmHg 86%
    03:00 +8°C° 0 mm 3 mps 729 mmHg 87%
    04:00 +8°C° 0 mm 3 mps 729 mmHg 89%
    05:00 +7°C° 0 mm 3 mps 729 mmHg 90%
    06:00 +8°C° 0 mm 3 mps 729 mmHg 87%
    07:00 +7°C° 0 mm 4 mps 729 mmHg 84%
    08:00 +7°C° 0 mm 4 mps 729 mmHg 82%
    09:00 +8°C° 0.1 mm 4 mps 729 mmHg 79%
    10:00 +10°C° 0.1 mm 4 mps 729 mmHg 76%
    11:00 +10°C° 0.1 mm 4 mps 729 mmHg 73%
    12:00 +10°C° 0.3 mm 5 mps 729 mmHg 71%
    13:00 +10°C° 0.3 mm 5 mps 729 mmHg 69%
    14:00 +10°C° 0.3 mm 5 mps 729 mmHg 68%
    15:00 +10°C° 0.2 mm 5 mps 729 mmHg 68%
    16:00 +10°C° 0.2 mm 5 mps 730 mmHg 67%
    17:00 +10°C° 0.2 mm 5 mps 730 mmHg 67%
    18:00 +9°C° 0.2 mm 5 mps 730 mmHg 72%
    19:00 +10°C° 0.2 mm 4 mps 730 mmHg 78%
    20:00 +8°C° 0.2 mm 4 mps 730 mmHg 83%
    21:00 +8°C° 0 mm 3 mps 731 mmHg 85%
    22:00 +8°C° 0 mm 3 mps 731 mmHg 88%
    23:00 +7°C° 0 mm 3 mps 731 mmHg 90%
    Show more